,,Stat1,,Stat2,,Stat3,,Stat4,,Wind1,,Wind1,
time,status,PR1M_SUM,status,RH1M_AVG,status,SR1M_AVG,status,TA1M_AVG,status,W1dAve1m,status,W1sAve1m,
1999-11-01, 00:01:01,VALID,0,VALID,93.3129,VALID,0,VALID,19.0028,VALID,176,VALID,0,
1999-11-01, 00:02:00,VALID,0,VALID,93.2709,VALID,0,VALID,19.0125,VALID,176,VALID,0,
1999-11-01, 00:03:00,VALID,0,VALID,92.3833,VALID,0,VALID,19.0351,VALID,176,VALID,0,
1999-11-01, 00:04:00,VALID,0,VALID,92.6745,VALID,0.0339617,VALID,19.054,VALID,176,VALID,0,
1999-11-01, 00:05:00,VALID,0,VALID,92.1939,VALID,0.0339617,VALID,19.0704,VALID,195,VALID,0,
1999-11-01, 00:06:00,VALID,0,VALID,91.7056,VALID,0,VALID,19.1035,VALID,235,VALID,0,
1999-11-01, 00:07:00,VALID,0,VALID,91.9001,VALID,0.0169808,VALID,19.1219,VALID,235,VALID,0,
1999-11-01, 00:08:00,VALID,0,VALID,92.1913,VALID,0,VALID,19.1415,VALID,234,VALID,0,
1999-11-01, 00:09:00,VALID,0,VALID,92.4698,VALID,0.0339617,VALID,19.1386,VALID,221,VALID,0,
1999-11-01, 00:10:00,VALID,0,VALID,92.3961,VALID,0,VALID,19.1224,VALID,221,VALID,0,
1999-11-01, 00:11:01,VALID,0,VALID,92.5537,VALID,0.0169808,VALID,19.1159,VALID,221,VALID,0,
1999-11-01, 00:12:00,VALID,0,VALID,92.6644,VALID,0,VALID,19.0963,VALID,221,VALID,0,
1999-11-01, 00:13:00,VALID,0,VALID,92.7788,VALID,0.0339617,VALID,19.1162,VALID,221,VALID,0,
1999-11-01, 00:14:00,VALID,0,VALID,92.8513,VALID,0.0169808,VALID,19.1189,VALID,221,VALID,0,
1999-11-01, 00:15:00,VALID,0,VALID,92.3719,VALID,0.0339617,VALID,19.1122,VALID,221,VALID,0,
1999-11-01, 00:16:00,VALID,0,VALID,92.4215,VALID,0.0169808,VALID,19.1124,VALID,221,VALID,0,
1999-11-01, 00:17:00,VALID,0,VALID,92.7216,VALID,0.0339617,VALID,19.106,VALID,221,VALID,0,
1999-11-01, 00:18:00,VALID,0,VALID,93.07,VALID,0,VALID,19.0898,VALID,221,VALID,0,
1999-11-01, 00:19:00,VALID,0,VALID,92.7368,VALID,0.0169808,VALID,19.0769,VALID,221,VALID,0,
1999-11-01, 00:20:00,VALID,0,VALID,92.995,VALID,0.0169808,VALID,19.0568,VALID,221,VALID,0,
1999-11-01, 00:21:00,VALID,0,VALID,93.0128,VALID,0.0339617,VALID,19.057,VALID,221,VALID,0,
1999-11-01, 00:22:00,VALID,0,VALID,92.9123,VALID,0.0509425,VALID,19.0416,VALID,221,VALID,0,
1999-11-01, 00:23:00,VALID,0,VALID,92.9009,VALID,0.0339617,VALID,18.9921,VALID,221,VALID,0,
1999-11-01, 00:24:00,VALID,0,VALID,92.8157,VALID,0.0679233,VALID,18.9926,VALID,221,VALID,0,
1999-11-01, 00:25:00,VALID,0,VALID,92.8831,VALID,0.0509425,VALID,18.9891,VALID,221,VALID,0,
1999-11-01, 00:26:00,VALID,0,VALID,93.0802,VALID,0.0509425,VALID,18.9859,VALID,221,VALID,0,
1999-11-01, 00:27:00,VALID,0,VALID,93.3968,VALID,0.0679233,VALID,18.9797,VALID,221,VALID,0,
1999-11-01, 00:28:00,VALID,0,VALID,93.5876,VALID,0.0169808,VALID,18.9215,VALID,207,VALID,0.0727796,
1999-11-01, 00:29:00,VALID,0,VALID,93.8241,VALID,-0.0509425,VALID,18.8451,VALID,142,VALID,0.430099,
1999-11-01, 00:30:00,VALID,0,VALID,94.0123,VALID,-0.0679233,VALID,18.797,VALID,136,VALID,0.133213,
1999-11-01, 00:31:00,VALID,0,VALID,94.0491,VALID,-0.0679233,VALID,18.7774,VALID,141,VALID,0,
1999-11-01, 00:32:00,VALID,0,VALID,93.7834,VALID,-0.0849042,VALID,18.7811,VALID,152,VALID,0,
1999-11-01, 00:33:01,VALID,0,VALID,93.7796,VALID,-0.0509425,VALID,18.7809,VALID,152,VALID,0,
1999-11-01, 00:34:00,VALID,0,VALID,93.894,VALID,-0.0339617,VALID,18.7869,VALID,152,VALID,0,
1999-11-01, 00:35:00,VALID,0,VALID,93.8966,VALID,-0.101885,VALID,18.7746,VALID,152,VALID,0,
1999-11-01, 00:36:00,VALID,0,VALID,93.9945,VALID,-0.0849042,VALID,18.7712,VALID,152,VALID,0,
1999-11-01, 00:37:00,VALID,0,VALID,94.1623,VALID,-0.0679233,VALID,18.7582,VALID,151,VALID,0,
1999-11-01, 00:38:00,VALID,0,VALID,94.3747,VALID,-0.0849042,VALID,18.7063,VALID,136,VALID,0,
1999-11-01, 00:39:00,VALID,0,VALID,94.4395,VALID,-0.0849042,VALID,18.658,VALID,135,VALID,0,
1999-11-01, 00:40:00,VALID,0,VALID,94.5819,VALID,-0.0849042,VALID,18.6319,VALID,135,VALID,0,
1999-11-01, 00:41:00,VALID,0,VALID,94.5934,VALID,-0.101885,VALID,18.6282,VALID,135,VALID,0,
1999-11-01, 00:42:00,VALID,0,VALID,94.5438,VALID,-0.0849042,VALID,18.6578,VALID,133,VALID,0,
1999-11-01, 00:43:01,VALID,0,VALID,94.5209,VALID,-0.0679233,VALID,18.6285,VALID,149,VALID,0,
1999-11-01, 00:44:00,VALID,0,VALID,94.601,VALID,-0.0339617,VALID,18.6021,VALID,149,VALID,0,
1999-11-01, 00:45:00,VALID,0,VALID,94.7091,VALID,-0.0169808,VALID,18.5931,VALID,149,VALID,0,
1999-11-01, 00:46:00,VALID,0,VALID,94.7918,VALID,0,VALID,18.58,VALID,149,VALID,0,
1999-11-01, 00:47:00,VALID,0,VALID,94.8553,VALID,0.0849042,VALID,18.5525,VALID,149,VALID,0,
1999-11-01, 00:48:00,VALID,0,VALID,94.9711,VALID,0.0509425,VALID,18.5497,VALID,149,VALID,0,
1999-11-01, 00:49:00,VALID,0,VALID,95.0931,VALID,0.0509425,VALID,18.5596,VALID,149,VALID,0,
1999-11-01, 00:50:00,VALID,0,VALID,95.0041,VALID,0.0339617,VALID,18.5333,VALID,149,VALID,0,
1999-11-01, 00:51:00,VALID,0,VALID,95.0067,VALID,0.0169808,VALID,18.5338,VALID,149,VALID,0,
1999-11-01, 00:52:00,VALID,0,VALID,95.1465,VALID,0.0339617,VALID,18.5275,VALID,149,VALID,0,
1999-11-01, 00:53:00,VALID,0,VALID,95.2966,VALID,0.0679233,VALID,18.5107,VALID,149,VALID,0,
1999-11-01, 00:54:00,VALID,0,VALID,95.233,VALID,0.0509425,VALID,18.5042,VALID,149,VALID,0,
1999-11-01, 00:55:00,VALID,0,VALID,95.1186,VALID,0.0509425,VALID,18.5079,VALID,149,VALID,0,
1999-11-01, 00:56:00,VALID,0,VALID,95.102,VALID,0.0509425,VALID,18.4945,VALID,149,VALID,0,
1999-11-01, 00:57:00,VALID,0,VALID,95.1834,VALID,0.0509425,VALID,18.488,VALID,149,VALID,0,
1999-11-01, 00:58:00,VALID,0,VALID,95.2788,VALID,0.0509425,VALID,18.4712,VALID,149,VALID,0,
1999-11-01, 00:59:00,VALID,0,VALID,95.4187,VALID,0,VALID,18.4797,VALID,149,VALID,0,
1999-11-01, 01:00:00,VALID,0,VALID,95.4911,VALID,-0.0169808,VALID,18.4837,VALID,149,VALID,0,
1999-11-01, 01:01:00,VALID,0,VALID,95.5267,VALID,-0.0849042,VALID,18.4703,VALID,149,VALID,0,
1999-11-01, 01:02:00,VALID,0,VALID,95.3347,VALID,-0.0339617,VALID,18.4671,VALID,149,VALID,0,
1999-11-01, 01:03:00,VALID,0,VALID,95.3742,VALID,-0.0509425,VALID,18.4636,VALID,149,VALID,0,
1999-11-01, 01:04:00,VALID,0,VALID,95.4543,VALID,-0.0679233,VALID,18.4929,VALID,149,VALID,0,
1999-11-01, 01:05:00,VALID,0,VALID,95.4352,VALID,-0.0339617,VALID,18.4802,VALID,149,VALID,0,
1999-11-01, 01:06:00,VALID,0,VALID,95.4822,VALID,-0.101885,VALID,18.4705,VALID,149,VALID,0,
1999-11-01, 01:07:00,VALID,0,VALID,95.5153,VALID,-0.0509425,VALID,18.4514,VALID,149,VALID,0,
1999-11-01, 01:08:00,VALID,0,VALID,95.4759,VALID,-0.0679233,VALID,18.4645,VALID,149,VALID,0,
1999-11-01, 01:09:00,VALID,0,VALID,95.6043,VALID,-0.0679233,VALID,18.4382,VALID,149,VALID,0,
1999-11-01, 01:10:00,VALID,0,VALID,95.6984,VALID,-0.0679233,VALID,18.4197,VALID,149,VALID,0,
1999-11-01, 01:11:00,VALID,0,VALID,95.804,VALID,-0.0339617,VALID,18.377,VALID,149,VALID,0,
1999-11-01, 01:12:00,VALID,0,VALID,95.968,VALID,-0.0849042,VALID,18.3578,VALID,149,VALID,0,
1999-11-01, 01:13:00,VALID,0,VALID,96.0926,VALID,-0.101885,VALID,18.3188,VALID,153,VALID,0,
1999-11-01, 01:14:00,VALID,0,VALID,96.1893,VALID,-0.0679233,VALID,18.3153,VALID,159,VALID,0.0542763,
1999-11-01, 01:15:00,VALID,0,VALID,96.2745,VALID,-0.0679233,VALID,18.3121,VALID,160,VALID,0.438301,
1999-11-01, 01:16:00,VALID,0,VALID,96.3838,VALID,-0.101885,VALID,18.3093,VALID,170,VALID,0.445313,
1999-11-01, 01:17:00,VALID,0,VALID,96.5529,VALID,-0.0679233,VALID,18.3225,VALID,181,VALID,0.350391,
1999-11-01, 01:18:00,VALID,0,VALID,96.5809,VALID,-0.0849042,VALID,18.3163,VALID,188,VALID,0.202714,
1999-11-01, 01:19:00,VALID,0,VALID,96.5313,VALID,-0.0849042,VALID,18.2897,VALID,189,VALID,0.370888,
1999-11-01, 01:20:00,VALID,0,VALID,96.4525,VALID,-0.0849042,VALID,18.2763,VALID,200,VALID,0.155649,
1999-11-01, 01:21:00,VALID,0,VALID,96.4232,VALID,-0.0679233,VALID,18.2703,VALID,201,VALID,0,
1999-11-01, 01:22:00,VALID,0,VALID,96.5669,VALID,-0.0509425,VALID,18.2572,VALID,210,VALID,0,
1999-11-01, 01:23:00,VALID,0,VALID,96.7322,VALID,-0.0509425,VALID,18.2609,VALID,204,VALID,0,
1999-11-01, 01:24:00,VALID,0,VALID,96.8823,VALID,-0.0849042,VALID,18.241,VALID,197,VALID,0,
1999-11-01, 01:25:00,VALID,0,VALID,97.162,VALID,-0.0509425,VALID,18.2211,VALID,193,VALID,0,
1999-11-01, 01:26:00,VALID,0,VALID,97.1582,VALID,-0.0509425,VALID,18.2156,VALID,175,VALID,0,
1999-11-01, 01:27:00,VALID,0,VALID,97.4761,VALID,-0.0679233,VALID,18.2221,VALID,171,VALID,0,
1999-11-01, 01:28:01,VALID,0,VALID,97.8029,VALID,-0.101885,VALID,18.2449,VALID,183,VALID,0,
1999-11-01, 01:29:00,VALID,0,VALID,97.8398,VALID,-0.0509425,VALID,18.2641,VALID,191,VALID,0,
1999-11-01, 01:30:00,VALID,0,VALID,97.8996,VALID,-0.0509425,VALID,18.2542,VALID,199,VALID,0,
1999-11-01, 01:31:00,VALID,0,VALID,97.8449,VALID,-0.0679233,VALID,18.2606,VALID,200,VALID,0,
1999-11-01, 01:32:00,VALID,0,VALID,97.7597,VALID,-0.0679233,VALID,18.2865,VALID,203,VALID,0,
1999-11-01, 01:33:00,VALID,0,VALID,97.8881,VALID,-0.0509425,VALID,18.3153,VALID,201,VALID,0,
1999-11-01, 01:34:00,VALID,0,VALID,97.9212,VALID,-0.0339617,VALID,18.335,VALID,202,VALID,0,
1999-11-01, 01:35:00,VALID,0,VALID,97.8868,VALID,-0.0339617,VALID,18.3382,VALID,194,VALID,0,
1999-11-01, 01:36:00,VALID,0,VALID,97.9962,VALID,-0.0509425,VALID,18.3347,VALID,192,VALID,0,
1999-11-01, 01:37:00,VALID,0,VALID,97.9428,VALID,-0.0679233,VALID,18.3292,VALID,174,VALID,0,
1999-11-01, 01:38:01,VALID,0,VALID,97.602,VALID,-0.0679233,VALID,18.2699,VALID,167,VALID,0,
1999-11-01, 01:39:00,VALID,0,VALID,97.6707,VALID,-0.0339617,VALID,18.241,VALID,168,VALID,0,
1999-11-01, 01:40:00,VALID,0,VALID,98.0763,VALID,-0.0849042,VALID,18.2673,VALID,179,VALID,0,
1999-11-01, 01:41:00,VALID,0,VALID,98.2353,VALID,-0.101885,VALID,18.2708,VALID,167,VALID,0,
1999-11-01, 01:42:00,VALID,0,VALID,98.0496,VALID,-0.0679233,VALID,18.2352,VALID,160,VALID,0,
1999-11-01, 01:43:00,VALID,0,VALID,98.2543,VALID,-0.0679233,VALID,18.2447,VALID,144,VALID,0,
1999-11-01, 01:44:00,VALID,0,VALID,97.9848,VALID,0.0169808,VALID,18.2241,VALID,143,VALID,0,
1999-11-01, 01:45:00,VALID,0,VALID,97.8017,VALID,0.0169808,VALID,18.2142,VALID,156,VALID,0,
1999-11-01, 01:46:00,VALID,0,VALID,97.7419,VALID,0.0339617,VALID,18.2078,VALID,154,VALID,0,
1999-11-01, 01:47:00,VALID,0,VALID,97.6834,VALID,0.0339617,VALID,18.1981,VALID,155,VALID,0,
1999-11-01, 01:48:00,VALID,0,VALID,97.5995,VALID,0.0509425,VALID,18.2048,VALID,155,VALID,0,
1999-11-01, 01:49:00,VALID,0,VALID,97.5372,VALID,0.0339617,VALID,18.1747,VALID,155,VALID,0,
1999-11-01, 01:50:00,VALID,0,VALID,97.5308,VALID,0.0509425,VALID,18.1856,VALID,155,VALID,0,
1999-11-01, 01:51:00,VALID,0,VALID,97.6834,VALID,0.0679233,VALID,18.1754,VALID,155,VALID,0,
1999-11-01, 01:52:00,VALID,0,VALID,97.8156,VALID,0.0339617,VALID,18.1692,VALID,181,VALID,0,
1999-11-01, 01:53:00,VALID,0,VALID,97.9059,VALID,0.0339617,VALID,18.1556,VALID,206,VALID,0,
1999-11-01, 01:54:00,VALID,0,VALID,98.0623,VALID,0.0509425,VALID,18.1653,VALID,208,VALID,0,
1999-11-01, 01:55:00,VALID,0,VALID,98.1946,VALID,0.0849042,VALID,18.1784,VALID,208,VALID,0,
1999-11-01, 01:56:00,VALID,0,VALID,98.2187,VALID,0.0339617,VALID,18.1951,VALID,216,VALID,0,
1999-11-01, 01:57:00,VALID,0,VALID,98.1984,VALID,0.0509425,VALID,18.1881,VALID,219,VALID,0,
1999-11-01, 01:58:00,VALID,0,VALID,98.2073,VALID,0.0169808,VALID,18.1819,VALID,228,VALID,0,
1999-11-01, 01:59:00,VALID,0,VALID,98.2073,VALID,0,VALID,18.1768,VALID,228,VALID,0,
1999-11-01, 02:00:00,VALID,0,VALID,98.2582,VALID,-0.0509425,VALID,18.174,VALID,221,VALID,0,
1999-11-01, 02:01:01,VALID,0,VALID,98.2429,VALID,-0.0679233,VALID,18.1738,VALID,219,VALID,0,
1999-11-01, 02:02:00,VALID,0,VALID,98.2048,VALID,-0.101885,VALID,18.1941,VALID,211,VALID,0,
1999-11-01, 02:03:00,VALID,0,VALID,98.1819,VALID,-0.0679233,VALID,18.1969,VALID,197,VALID,0,
1999-11-01, 02:04:00,VALID,0,VALID,98.1246,VALID,-0.0509425,VALID,18.1927,VALID,197,VALID,0,
1999-11-01, 02:05:00,VALID,0,VALID,98.0305,VALID,-0.0509425,VALID,18.193,VALID,184,VALID,0,
1999-11-01, 02:06:00,VALID,0,VALID,97.9046,VALID,-0.0679233,VALID,18.1835,VALID,167,VALID,0,
1999-11-01, 02:07:00,VALID,0,VALID,97.9072,VALID,-0.0509425,VALID,18.1673,VALID,160,VALID,0,
1999-11-01, 02:08:00,VALID,0,VALID,97.9314,VALID,-0.0169808,VALID,18.1671,VALID,160,VALID,0,
1999-11-01, 02:09:00,VALID,0,VALID,97.9085,VALID,-0.0849042,VALID,18.1708,VALID,164,VALID,0,
1999-11-01, 02:10:00,VALID,0,VALID,97.7254,VALID,-0.0679233,VALID,18.1706,VALID,169,VALID,0,
1999-11-01, 02:11:00,VALID,0,VALID,97.5715,VALID,-0.0849042,VALID,18.1999,VALID,176,VALID,0,
1999-11-01, 02:12:01,VALID,0,VALID,97.3998,VALID,-0.0679233,VALID,18.2098,VALID,182,VALID,0,
1999-11-01, 02:13:00,VALID,0,VALID,97.3477,VALID,-0.0339617,VALID,18.2126,VALID,185,VALID,0,
1999-11-01, 02:14:00,VALID,0,VALID,97.1341,VALID,-0.0679233,VALID,18.2064,VALID,184,VALID,0,
1999-11-01, 02:15:00,VALID,0,VALID,96.9433,VALID,-0.0849042,VALID,18.2128,VALID,184,VALID,0,
1999-11-01, 02:16:00,VALID,0,VALID,96.9192,VALID,-0.0509425,VALID,18.2193,VALID,189,VALID,0,
1999-11-01, 02:17:00,VALID,0,VALID,97.1252,VALID,-0.0339617,VALID,18.2094,VALID,200,VALID,0.463281,
1999-11-01, 02:18:00,VALID,0,VALID,97.3871,VALID,-0.0169808,VALID,18.2221,VALID,203,VALID,0.895354,
1999-11-01, 02:19:00,VALID,0,VALID,97.8652,VALID,0,VALID,18.2641,VALID,202,VALID,0.798314,
1999-11-01, 02:20:00,VALID,0,VALID,98.0674,VALID,-0.0169808,VALID,18.2936,VALID,200,VALID,0.814704,
1999-11-01, 02:21:00,VALID,0,VALID,98.1946,VALID,-0.0339617,VALID,18.3029,VALID,204,VALID,0.711589,
1999-11-01, 02:22:00,VALID,0,VALID,98.398,VALID,-0.0509425,VALID,18.3061,VALID,210,VALID,0.759713,
1999-11-01, 02:23:01,VALID,0,VALID,98.5621,VALID,-0.0339617,VALID,18.3093,VALID,205,VALID,0.746595,
1999-11-01, 02:24:00,VALID,0,VALID,98.6562,VALID,-0.0339617,VALID,18.3031,VALID,206,VALID,0.762541,
1999-11-01, 02:25:00,VALID,0,VALID,98.7325,VALID,-0.0169808,VALID,18.2902,VALID,214,VALID,0.822115,
1999-11-01, 02:26:00,VALID,0,VALID,98.7871,VALID,-0.0679233,VALID,18.2738,VALID,212,VALID,0.777138,
1999-11-01, 02:27:00,VALID,0,VALID,98.8011,VALID,-0.0339617,VALID,18.2742,VALID,211,VALID,0.763281,
1999-11-01, 02:28:00,VALID,0,VALID,98.8901,VALID,-0.0339617,VALID,18.2708,VALID,221,VALID,0.763363,
1999-11-01, 02:29:00,VALID,0,VALID,98.9321,VALID,-0.0169808,VALID,18.274,VALID,216,VALID,0.809416,
1999-11-01, 02:30:00,VALID,0,VALID,98.9105,VALID,-0.0679233,VALID,18.2745,VALID,195,VALID,0.552083,
1999-11-01, 02:31:00,VALID,0,VALID,98.9283,VALID,-0.0509425,VALID,18.2742,VALID,188,VALID,0.431207,
1999-11-01, 02:32:00,VALID,0,VALID,98.8965,VALID,-0.0679233,VALID,18.2581,VALID,164,VALID,0.681588,
1999-11-01, 02:33:01,VALID,0,VALID,98.8011,VALID,-0.0339617,VALID,18.2355,VALID,160,VALID,0.729367,
1999-11-01, 02:34:01,VALID,0,VALID,98.7236,VALID,-0.0509425,VALID,18.1992,VALID,160,VALID,0.759252,
1999-11-01, 02:35:00,VALID,0,VALID,98.7477,VALID,-0.0509425,VALID,18.1932,VALID,161,VALID,0.818109,
1999-11-01, 02:36:00,VALID,0,VALID,98.7744,VALID,-0.0339617,VALID,18.1967,VALID,162,VALID,0.771176,
1999-11-01, 02:37:00,VALID,0,VALID,98.707,VALID,-0.0339617,VALID,18.19,VALID,163,VALID,0.720117,
1999-11-01, 02:38:00,VALID,0,VALID,98.7134,VALID,-0.0509425,VALID,18.1798,VALID,162,VALID,0.712788,
1999-11-01, 02:39:00,VALID,0,VALID,98.6918,VALID,-0.0509425,VALID,18.1803,VALID,164,VALID,0.660773,
1999-11-01, 02:40:00,VALID,0,VALID,98.7643,VALID,-0.0339617,VALID,18.1904,VALID,171,VALID,0.586138,
1999-11-01, 02:41:00,VALID,0,VALID,98.7439,VALID,-0.101885,VALID,18.1937,VALID,192,VALID,0.634115,
1999-11-01, 02:42:00,VALID,0,VALID,98.693,VALID,-0.0339617,VALID,18.187,VALID,194,VALID,0.599662,
1999-11-01, 02:43:01,VALID,0,VALID,98.6562,VALID,-0.0169808,VALID,18.1773,VALID,200,VALID,0.508814,
1999-11-01, 02:44:00,VALID,0,VALID,98.6142,VALID,-0.0339617,VALID,18.1673,VALID,198,VALID,0.51213,
1999-11-01, 02:45:01,VALID,0,VALID,98.6117,VALID,-0.0169808,VALID,18.1814,VALID,202,VALID,0.703726,
1999-11-01, 02:46:00,VALID,0,VALID,98.5939,VALID,-0.0509425,VALID,18.1775,VALID,198,VALID,0.770765,
1999-11-01, 02:47:00,VALID,0,VALID,98.5519,VALID,-0.0509425,VALID,18.1773,VALID,199,VALID,0.803711,
1999-11-01, 02:48:00,VALID,0,VALID,98.5328,VALID,-0.0679233,VALID,18.1803,VALID,199,VALID,0.797697,
1999-11-01, 02:49:00,VALID,0,VALID,98.5112,VALID,-0.0679233,VALID,18.1937,VALID,203,VALID,0.70477,
1999-11-01, 02:50:00,VALID,0,VALID,98.529,VALID,-0.0679233,VALID,18.1932,VALID,208,VALID,0.670673,
1999-11-01, 02:51:00,VALID,0,VALID,98.5494,VALID,-0.0849042,VALID,18.2029,VALID,203,VALID,0.809679,
1999-11-01, 02:52:00,VALID,0,VALID,98.5494,VALID,-0.0169808,VALID,18.2191,VALID,205,VALID,0.832559,
1999-11-01, 02:53:00,VALID,0,VALID,98.5252,VALID,-0.0849042,VALID,18.2228,VALID,213,VALID,0.692308,
1999-11-01, 02:54:00,VALID,0,VALID,98.5087,VALID,-0.0849042,VALID,18.2491,VALID,210,VALID,0.760485,
1999-11-01, 02:55:00,VALID,0,VALID,98.4705,VALID,-0.101885,VALID,18.2583,VALID,212,VALID,0.890224,
1999-11-01, 02:56:01,VALID,0,VALID,98.4184,VALID,-0.0509425,VALID,18.2775,VALID,212,VALID,0.886924,
1999-11-01, 02:57:00,VALID,0,VALID,98.2874,VALID,-0.101885,VALID,18.3105,VALID,206,VALID,0.8625,
1999-11-01, 02:58:00,VALID,0,VALID,98.117,VALID,-0.0679233,VALID,18.3135,VALID,205,VALID,0.746711,
1999-11-01, 02:59:00,VALID,0,VALID,97.9492,VALID,-0.0339617,VALID,18.3128,VALID,202,VALID,0.506168,
1999-11-01, 03:00:00,VALID,0,VALID,97.8703,VALID,0,VALID,18.2994,VALID,201,VALID,0.482372,
1999-11-01, 03:01:00,VALID,0,VALID,97.8411,VALID,-0.0509425,VALID,18.2966,VALID,204,VALID,0.415799,
1999-11-01, 03:02:00,VALID,0,VALID,97.8131,VALID,-0.0509425,VALID,18.2902,VALID,203,VALID,0.186022,
1999-11-01, 03:03:00,VALID,0,VALID,97.7673,VALID,0,VALID,18.2932,VALID,189,VALID,0.393429,
1999-11-01, 03:04:00,VALID,0,VALID,97.7241,VALID,0,VALID,18.2805,VALID,186,VALID,0.637541,
1999-11-01, 03:05:00,VALID,0,VALID,97.8258,VALID,0,VALID,18.2865,VALID,183,VALID,0.915865,
1999-11-01, 03:06:00,VALID,0,VALID,97.7012,VALID,-0.0169808,VALID,18.2999,VALID,165,VALID,0.502673,
1999-11-01, 03:07:00,VALID,0,VALID,97.5079,VALID,-0.0509425,VALID,18.2807,VALID,161,VALID,0.350586,
1999-11-01, 03:08:00,VALID,0,VALID,97.5143,VALID,-0.0169808,VALID,18.2512,VALID,161,VALID,0.330387,
1999-11-01, 03:09:00,VALID,0,VALID,97.5244,VALID,-0.0509425,VALID,18.2352,VALID,161,VALID,0.441201,
1999-11-01, 03:10:00,VALID,0,VALID,97.6351,VALID,-0.0339617,VALID,18.2124,VALID,175,VALID,0.515224,
1999-11-01, 03:11:00,VALID,0,VALID,97.794,VALID,-0.0169808,VALID,18.1994,VALID,191,VALID,0.834418,
1999-11-01, 03:12:00,VALID,0,VALID,97.8716,VALID,0,VALID,18.2027,VALID,196,VALID,0.836782,
1999-11-01, 03:13:00,VALID,0,VALID,97.8614,VALID,-0.0339617,VALID,18.2128,VALID,203,VALID,0.589944,
1999-11-01, 03:14:00,VALID,0,VALID,97.8805,VALID,-0.0339617,VALID,18.2255,VALID,208,VALID,0.710526,
1999-11-01, 03:15:00,VALID,0,VALID,97.8551,VALID,-0.0339617,VALID,18.2255,VALID,220,VALID,0.753005,
1999-11-01, 03:16:00,VALID,0,VALID,97.8195,VALID,0,VALID,18.2447,VALID,213,VALID,0.836349,
1999-11-01, 03:17:00,VALID,0,VALID,97.766,VALID,0,VALID,18.2514,VALID,209,VALID,0.433984,
1999-11-01, 03:18:00,VALID,0,VALID,97.6529,VALID,-0.0169808,VALID,18.2613,VALID,206,VALID,0.465666,
1999-11-01, 03:19:00,VALID,0,VALID,97.555,VALID,0,VALID,18.2581,VALID,219,VALID,0.351974,
1999-11-01, 03:20:00,VALID,0,VALID,97.466,VALID,0,VALID,18.2445,VALID,209,VALID,0.362981,
1999-11-01, 03:21:00,VALID,0,VALID,97.4164,VALID,0,VALID,18.2387,VALID,204,VALID,0.661675,
1999-11-01, 03:22:00,VALID,0,VALID,97.368,VALID,-0.0169808,VALID,18.2253,VALID,201,VALID,0.627323,
1999-11-01, 03:23:00,VALID,0,VALID,97.3248,VALID,0,VALID,18.2061,VALID,205,VALID,0.543069,
1999-11-01, 03:24:00,VALID,0,VALID,97.2905,VALID,0,VALID,18.1932,VALID,199,VALID,0.606497,
1999-11-01, 03:25:00,VALID,0,VALID,97.2968,VALID,0,VALID,18.193,VALID,186,VALID,0.863582,
1999-11-01, 03:26:00,VALID,0,VALID,97.2345,VALID,0,VALID,18.2151,VALID,180,VALID,0.772204,
1999-11-01, 03:27:00,VALID,0,VALID,97.1646,VALID,0,VALID,18.2253,VALID,171,VALID,0.802344,
1999-11-01, 03:28:01,VALID,0,VALID,97.0514,VALID,-0.0339617,VALID,18.2124,VALID,177,VALID,0.714227,
1999-11-01, 03:29:00,VALID,0,VALID,96.9726,VALID,-0.0169808,VALID,18.2124,VALID,176,VALID,0.70477,
1999-11-01, 03:30:00,VALID,0,VALID,96.942,VALID,0,VALID,18.1703,VALID,171,VALID,0.805689,
1999-11-01, 03:31:00,VALID,0,VALID,96.7907,VALID,-0.0169808,VALID,18.1574,VALID,171,VALID,0.826823,
1999-11-01, 03:32:00,VALID,0,VALID,96.5021,VALID,0,VALID,18.19,VALID,174,VALID,0.798775,
1999-11-01, 03:33:00,VALID,0,VALID,96.3482,VALID,-0.0169808,VALID,18.2221,VALID,177,VALID,0.720152,
1999-11-01, 03:34:00,VALID,0,VALID,96.3825,VALID,-0.0509425,VALID,18.2419,VALID,179,VALID,0.744038,
1999-11-01, 03:35:00,VALID,0,VALID,96.4894,VALID,-0.0169808,VALID,18.2061,VALID,196,VALID,0.621194,
1999-11-01, 03:36:00,VALID,0,VALID,96.511,VALID,-0.0169808,VALID,18.1835,VALID,204,VALID,0.803043,
1999-11-01, 03:37:00,VALID,0,VALID,96.5237,VALID,-0.0169808,VALID,18.174,VALID,205,VALID,0.899805,
1999-11-01, 03:38:01,VALID,0,VALID,96.5046,VALID,-0.0339617,VALID,18.1807,VALID,202,VALID,0.764803,
1999-11-01, 03:39:00,VALID,0,VALID,96.5135,VALID,-0.0169808,VALID,18.174,VALID,214,VALID,0.988692,
1999-11-01, 03:40:00,VALID,0,VALID,96.6,VALID,0,VALID,18.177,VALID,198,VALID,0.905849,
1999-11-01, 03:41:00,VALID,0,VALID,96.544,VALID,-0.0339617,VALID,18.1738,VALID,176,VALID,0.535807,
1999-11-01, 03:42:00,VALID,0,VALID,96.5351,VALID,-0.0169808,VALID,18.1671,VALID,176,VALID,0.773649,
1999-11-01, 03:43:00,VALID,0,VALID,96.5618,VALID,-0.0169808,VALID,18.1609,VALID,169,VALID,0.621795,
1999-11-01, 03:44:00,VALID,0,VALID,96.483,VALID,-0.0509425,VALID,18.1415,VALID,167,VALID,0.692434,
1999-11-01, 03:45:00,VALID,0,VALID,96.5644,VALID,-0.0339617,VALID,18.1029,VALID,162,VALID,0.559896,
1999-11-01, 03:46:00,VALID,0,VALID,96.6648,VALID,-0.0509425,VALID,18.0937,VALID,162,VALID,0.303248,
1999-11-01, 03:47:00,VALID,0,VALID,96.7488,VALID,-0.0339617,VALID,18.0771,VALID,162,VALID,0,
1999-11-01, 03:48:00,VALID,0,VALID,96.8683,VALID,-0.0339617,VALID,18.0574,VALID,162,VALID,0,
1999-11-01, 03:49:00,VALID,0,VALID,96.8785,VALID,-0.0509425,VALID,18.0547,VALID,162,VALID,0,
1999-11-01, 03:50:00,VALID,0,VALID,96.8797,VALID,-0.0679233,VALID,18.0355,VALID,162,VALID,0.0192308,
1999-11-01, 03:51:00,VALID,0,VALID,96.9255,VALID,-0.0509425,VALID,18.0189,VALID,162,VALID,0,
1999-11-01, 03:52:00,VALID,0,VALID,97.0171,VALID,-0.0679233,VALID,18.0196,VALID,162,VALID,0,
1999-11-01, 03:53:00,VALID,0,VALID,97.0463,VALID,-0.0509425,VALID,17.9995,VALID,162,VALID,0.18109,
1999-11-01, 03:54:00,VALID,0,VALID,97.0819,VALID,-0.0339617,VALID,17.9872,VALID,162,VALID,0.0810033,
1999-11-01, 03:55:00,VALID,0,VALID,97.1811,VALID,-0.0339617,VALID,17.9443,VALID,175,VALID,0,
1999-11-01, 03:56:00,VALID,0,VALID,97.3248,VALID,-0.0169808,VALID,17.9221,VALID,180,VALID,0,
1999-11-01, 03:57:00,VALID,0,VALID,97.452,VALID,-0.0169808,VALID,17.9154,VALID,180,VALID,0,
1999-11-01, 03:58:00,VALID,0,VALID,97.5575,VALID,-0.0679233,VALID,17.9027,VALID,180,VALID,0,
1999-11-01, 03:59:00,VALID,0,VALID,97.602,VALID,-0.0509425,VALID,17.8928,VALID,194,VALID,0,
1999-11-01, 04:00:00,VALID,0,VALID,97.6567,VALID,-0.0849042,VALID,17.893,VALID,226,VALID,0.31871,
1999-11-01, 04:01:00,VALID,0,VALID,97.5906,VALID,-0.0679233,VALID,17.8573,VALID,232,VALID,0.90625,
1999-11-01, 04:02:00,VALID,0,VALID,97.6427,VALID,-0.0679233,VALID,17.8482,VALID,231,VALID,0.943834,
1999-11-01, 04:03:00,VALID,0,VALID,97.8563,VALID,-0.0339617,VALID,17.8413,VALID,231,VALID,0.932292,
1999-11-01, 04:04:00,VALID,0,VALID,97.9301,VALID,-0.0679233,VALID,17.851,VALID,230,VALID,0.696546,
1999-11-01, 04:05:00,VALID,0,VALID,97.9225,VALID,-0.0169808,VALID,17.8575,VALID,228,VALID,0.744591,
1999-11-01, 04:06:00,VALID,0,VALID,98.0509,VALID,-0.101885,VALID,17.8642,VALID,232,VALID,1.00658,
1999-11-01, 04:07:00,VALID,0,VALID,98.1958,VALID,-0.0849042,VALID,17.8678,VALID,219,VALID,0.853711,
1999-11-01, 04:08:00,VALID,0,VALID,98.4133,VALID,-0.0849042,VALID,17.8778,VALID,209,VALID,0.945313,
1999-11-01, 04:09:00,VALID,0,VALID,98.5557,VALID,-0.0849042,VALID,17.8838,VALID,210,VALID,0.597656,